Location: Mococo
(38.0255°N, 122.1161°W)
Time: 11:58:52
(UTC+00:00)

SL-16 R/B - Pass Details

Date: 13 February 2026
Orbit: 841 x 845 km, 71.0° (Epoch: 17 March)

Event Time Altitude Azimuth Distance (km) Brightness Sun altitude
Rises 14:04:01 0° 192° (SSW) 3,380 5.3 -11.7°
Reaches altitude 10° 14:06:28 10° 190° (S) 2,450 4.6 -11.2°
Maximum altitude 14:12:02 66° 109° (ESE) 916 2.7 -10.2°
Drops below altitude 10° 14:17:38 10° 28° (NNE) 2,468 4.9 -9.1°
Sets 14:20:06 0° 26° (NNE) 3,407 5.6 -8.6°
